GLOBALSTAR M053 [-]

Last updated on July 6, 2021, 3:36 p.m. UTC

1 25886U 99043D   21186.78838007 -.00000069  00000-0  18940-5 0  9996
2 25886  52.0000 308.6394 0003908 146.7811   9.2739 11.27640134956738
UTC
Height (km)
Latitude
Longitude
Inclination
Orbital Period
UTC large
Height (km)
Speed (km/s)
/
Latitude / Longitude
Inclination (degrees)
Orbital Period (minutes)
Azimuth
Elevation
Range (km)
Doppler Factor
iOS Compass Heading
iOS Angle